[[{"header":{"parameterUnit":"m.s-1","parameterCategory":2,"la1":30.2991,"la2":30.254,"lo1":-89.0895,"lo2":-89.0444,"dy":0.0017,"dx":0.0017,"nx":28,"ny":28,"refTime":"2024-07-11T09:00:00:Z","depth":"0","parameterNumber":2,"parameterNumberName":"U-component_of_CURRENTS"},"data":[0,0,0,0,0,0,0,0,0,0,0,0,0,0,0,0,0,0,0,0,0,0,0,0,0,0,0,0,0,0,0,0,0,0,0,0,0,0,0,0,0,0,0,0,0,0,0,0,0,0,0,0,0,0,0,0,0,0,0.2175,0.2176,0,0.2221,0.2221,0.222,0.2127,0.2125,0.2123,0.2121,0.2134,0.2137,0.2139,0,0,0,0,0,0,0,0,0,0,0,0,0,0.2033,0.2035,0.2175,0.2176,0.2177,0.2221,0.2221,0.222,0.2128,0.2125,0.2122,0.212,0.2134,0.2136,0.2139,0,0,0,0,0,0,0,0,0,0,0,0,0,0.2079,0.2035,0.2174,0.2144,0.2142,0.2221,0.2221,0.222,0.2128,0.2125,0.2122,0.2119,0.2133,0.2136,0.214,0.2227,0,0,0.215,0.2152,0,0,0,0,0,0,0,0,0.2076,0.2083,0.2147,0.2146,0.2144,0.2173,0.2176,0.2224,0.2129,0.2123,0.2121,0.2117,0.2153,0.2155,0.2157,0.2227,0.2228,0.2151,0.2153,0.2154,0.2155,0,0,0,0,0,0,0,0.2073,0.2081,0.2183,0.2149,0.2147,0.2137,0.2139,0.2184,0.2148,0.2124,0.2119,0.2141,0.215,0.2154,0.2157,0.2228,0.2151,0.2154,0.2156,0.2157,0.2334,0.2336,0,0,0,0,0,0,0.209,0.2078,0.2182,0.2185,0.2113,0.2143,0.2145,0.2159,0.2148,0.2146,0.2144,0.2137,0.215,0.2153,0.2157,0.2196,0.2154,0.2158,0.216,0.2331,0.2334,0.2337,0,0,0,0,0,0,0.2086,0.2098,0.218,0.214,0.2151,0.215,0.2167,0.2162,0.2162,0.2165,0.216,0.2148,0.2147,0.2152,0.2187,0.2198,0.2159,0.2163,0.2328,0.2332,0.2335,0.2314,0,0,0,0,0,0,0.2082,0.2097,0.2118,0.2142,0.2154,0.2224,0.2171,0.2166,0.2185,0.2176,0.2169,0.2166,0.2145,0.2182,0.2191,0.2202,0.2165,0.2325,0.233,0.2334,0.2311,0.2317,0.2321,0,0,0,0,0,0.2077,0.211,0.2119,0.2132,0.2182,0.2226,0.2231,0.2212,0.2189,0.2197,0.2187,0.2166,0.2218,0.2187,0.2197,0.2209,0.2322,0.2328,0.2334,0.2309,0.2316,0.2321,0,0,0,0,0,0,0.2073,0.2106,0.2115,0.2161,0.2196,0.2214,0.2232,0.2229,0.2231,0.222,0.2201,0.22,0.223,0.2248,0.2214,0.2281,0.2269,0.2276,0.2247,0.2253,0.2258,0.2262,0.2168,0,0,0,0,0,0.2088,0.2105,0.2152,0.2191,0.2212,0.2229,0.2249,0.2244,0.2254,0.2249,0.2244,0.2253,0.227,0.228,0.2299,0.2351,0.2367,0.237,0.2375,0.2378,0.2394,0.241,0.2416,0.2356,0.2356,0.2355,0,0,0.2113,0.2124,0.2145,0.2191,0.2212,0.224,0.2228,0.2266,0.2275,0.2259,0.2264,0.2272,0.229,0.2317,0.2335,0.2327,0.2412,0.2386,0.2387,0.2402,0.2417,0.2422,0.2427,0.2359,0.2359,0.2358,0,0,0.2136,0.2169,0.2182,0.2216,0.2257,0.2264,0.2281,0.2308,0.2302,0.2344,0.2313,0.2332,0.2376,0.2364,0.2373,0.2437,0.2433,0.2452,0.2476,0.2491,0.2494,0.2498,0.2541,0.2548,0.2454,0.2454,0.2454,0,0.217,0.2174,0.2201,0.2223,0.2244,0.2274,0.2295,0.2316,0.2345,0.2347,0.2346,0.2392,0.2396,0.2415,0.2425,0.2441,0.2462,0.2436,0.2491,0.2495,0.2499,0.2542,0.255,0.2454,0.2454,0.2454,0.2454,0,0.218,0.2208,0.2224,0.2241,0.2273,0.2304,0.234,0.2352,0.236,0.238,0.2416,0.2434,0.2455,0.2464,0.2463,0.2496,0.2507,0.2485,0.246,0.2503,0.2547,0.2556,0.2454,0.2454,0.2454,0.2454,0,0,0.2202,0.2223,0.2231,0.2233,0.228,0.23,0.2325,0.2348,0.235,0.2407,0.2416,0.2464,0.2483,0.2498,0.25,0.2523,0.2565,0.2522,0.2523,0.2538,0.2625,0.2603,0.2611,0.2541,0.2542,0.2543,0.2648,0,0.22,0.2204,0.2223,0.2248,0.2256,0.2291,0.2305,0.234,0.2364,0.2385,0.2437,0.2464,0.2495,0.25,0.2534,0.2556,0.2588,0.2541,0.2608,0.2611,0.2561,0.262,0.2448,0.2523,0.2656,0.2658,0.2659,0,0.218,0.2185,0.2189,0.2211,0.2221,0.224,0.2241,0.2271,0.2322,0.2347,0.2404,0.2449,0.2517,0.252,0.262,0.259,0.2618,0.264,0.2643,0.2637,0.2605,0.2505,0.2534,0.2435,0.2673,0.2672,0.2671,0,0.2111,0.2152,0.213,0.2151,0.2195,0.2191,0.2207,0.225,0.2267,0.2325,0.2348,0.2445,0.2489,0.2559,0.2654,0.2629,0.2757,0.2714,0.2729,0.2729,0.2606,0.2592,0.2521,0.277,0.277,0.2769,0.2769,0,0.2064,0.2062,0.2096,0.2101,0.2092,0.2144,0.2143,0.2167,0.2216,0.2245,0.2331,0.2373,0.2498,0.2595,0.2665,0.2757,0.2775,0.2759,0.2755,0.2599,0.2584,0.2511,0.2507,0.2773,0.2773,0.2772,0.2771,0,0.1993,0.2005,0.201,0.2053,0.2057,0.2058,0.2101,0.2112,0.2158,0.2194,0.2218,0.2337,0.2463,0.2598,0.2716,0.276,0.2764,0.2858,0.2692,0.2667,0.2558,0.2562,0.2531,0.2454,0.2881,0.2881,0.2881,0,0.1945,0.1938,0.1977,0.1976,0.1994,0.2005,0.2015,0.2069,0.2093,0.2173,0.2193,0.2319,0.2399,0.2601,0.2698,0.2829,0.2759,0.2735,0.2644,0.2551,0.2552,0.2508,0.2441,0.2484,0.2481,0.2479,0.2477,0,0.1889,0.1905,0.191,0.1914,0.1919,0.1942,0.1964,0.1968,0.2039,0.2068,0.2127,0.2189,0.2365,0.243,0.2607,0.2656,0.2581,0.2684,0.2605,0.2268,0.2197,0.2119,0.2449,0.2453,0.2456,0.2457,0.2459,0.246,0.1847,0.1835,0.1839,0.1844,0.185,0.1865,0.1857,0.1893,0.191,0.1934,0.2034,0.2073,0.2162,0.2372,0.243,0.2374,0.2444,0.2281,0.2309,0.2287,0.215,0.2462,0.2446,0.2448,0.245,0.2452,0.2453,0,0.1799,0.1781,0.1771,0.1763,0.1755,0.1792,0.1811,0.1795,0.1786,0.1834,0.1866,0.1891,0.1922,0.2,0.2014,0.1982,0.1913,0.1945,0.1797,0.176,0.2028,0.1942,0.1792,0.1792,0.1792,0.1792,0.1792,0.1793,0.1752,0.1721,0.1715,0.1669,0.1668,0.1635,0.1634,0.1619,0.1634,0.1599,0.1594,0.164,0.1699,0.1705,0.1641,0.1627,0.1552,0.153,0.1587,0.1715,0.1746,0.1775,0.1687,0.1486,0.1486,0.1166,0.1164,0.1162]},{"header":{"parameterUnit":"m.s-1","parameterCategory":2,"la1":30.2991,"la2":30.254,"lo1":-89.0895,"lo2":-89.0444,"dy":0.0017,"dx":0.0017,"nx":28,"ny":28,"refTime":"2024-07-11T09:00:00:Z","depth":"0","parameterNumber":3,"parameterNumberName":"V-component_of_CURRENTS"},"data":[0,0,0,0,0,0,0,0,0,0,0,0,0,0,0,0,0,0,0,0,0,0,0,0,0,0,0,0,0,0,0,0,0,0,0,0,0,0,0,0,0,0,0,0,0,0,0,0,0,0,0,0,0,0,0,0,0,0,0.0186,0.0187,0,0.0209,0.0209,0.0208,0.0151,0.015,0.0149,0.0148,0.0205,0.0207,0.021,0,0,0,0,0,0,0,0,0,0,0,0,0,0.0054,0.0057,0.0186,0.0187,0.0188,0.0209,0.0209,0.0208,0.0151,0.015,0.0148,0.0147,0.0204,0.0207,0.021,0,0,0,0,0,0,0,0,0,0,0,0,0,0.009,0.0057,0.0186,0.0168,0.0167,0.0209,0.0209,0.0208,0.0151,0.015,0.0148,0.0147,0.0203,0.0206,0.021,0.0266,0,0,0.0222,0.0223,0,0,0,0,0,0,0,0,0.0088,0.0094,0.0169,0.0169,0.0169,0.0183,0.0184,0.0232,0.0152,0.0149,0.0148,0.0146,0.0207,0.021,0.0206,0.0269,0.0271,0.0222,0.0224,0.0226,0.0227,0,0,0,0,0,0,0,0.0086,0.0093,0.0187,0.0171,0.017,0.0147,0.0149,0.0192,0.0181,0.0149,0.0147,0.0163,0.0205,0.0203,0.0207,0.0272,0.0222,0.0225,0.0228,0.0229,0.0339,0.0339,0,0,0,0,0,0,0.0104,0.0091,0.0186,0.0188,0.0133,0.0151,0.0154,0.0173,0.018,0.0181,0.0164,0.016,0.0197,0.0203,0.0209,0.0261,0.0226,0.023,0.0232,0.0338,0.0339,0.0339,0,0,0,0,0,0,0.0101,0.0112,0.0186,0.0146,0.0155,0.0156,0.0178,0.0175,0.0174,0.0193,0.0192,0.0168,0.0196,0.0204,0.0229,0.0263,0.0231,0.0235,0.0337,0.0338,0.0339,0.0375,0,0,0,0,0,0,0.0097,0.0111,0.0123,0.0148,0.0158,0.022,0.018,0.0177,0.0191,0.0185,0.0197,0.02,0.0195,0.0223,0.0233,0.0268,0.0238,0.0336,0.0338,0.0339,0.0373,0.0377,0.038,0,0,0,0,0,0.0092,0.0117,0.0123,0.0134,0.0177,0.0222,0.0225,0.0214,0.0193,0.0204,0.0191,0.0199,0.0238,0.0227,0.0238,0.0275,0.0336,0.0337,0.0339,0.0371,0.0376,0.038,0,0,0,0,0,0,0.0069,0.0116,0.0122,0.016,0.0196,0.0216,0.0228,0.0226,0.0224,0.0216,0.0212,0.0215,0.0247,0.0257,0.0245,0.0307,0.0289,0.0292,0.0309,0.0314,0.0318,0.0326,0.0241,0,0,0,0,0,0.0075,0.0097,0.0148,0.0177,0.0201,0.0217,0.0232,0.0235,0.0245,0.0241,0.0248,0.0253,0.0265,0.0283,0.0296,0.0345,0.0336,0.0373,0.0377,0.038,0.0393,0.0376,0.0379,0.0344,0.0344,0.0344,0,0,0.0075,0.0103,0.0116,0.0173,0.0195,0.0233,0.0219,0.0257,0.0277,0.0254,0.0273,0.0272,0.0277,0.0309,0.0327,0.0323,0.0388,0.0382,0.0385,0.0396,0.0378,0.0381,0.0384,0.0345,0.0345,0.0345,0,0,0.0091,0.0117,0.0146,0.018,0.0233,0.0248,0.0266,0.0302,0.0305,0.0339,0.0311,0.0323,0.036,0.0357,0.0363,0.0404,0.0401,0.0416,0.0457,0.044,0.0443,0.0445,0.0447,0.0449,0.0426,0.0426,0.0426,0,0.0086,0.0134,0.0162,0.0204,0.0232,0.0259,0.0301,0.0319,0.0351,0.0366,0.0351,0.0379,0.0381,0.0412,0.0412,0.0416,0.0407,0.0439,0.0445,0.0447,0.0448,0.045,0.0452,0.0428,0.0428,0.0428,0.0427,0,0.0131,0.0167,0.0193,0.0246,0.028,0.0324,0.0367,0.0392,0.0402,0.0421,0.0458,0.0451,0.0467,0.0471,0.0455,0.0479,0.047,0.0443,0.0433,0.0454,0.0454,0.0456,0.0431,0.043,0.043,0.0429,0,0,0.0113,0.0204,0.0209,0.0244,0.0307,0.0343,0.0385,0.0439,0.0466,0.0497,0.0531,0.0543,0.0544,0.0549,0.0538,0.0529,0.0527,0.0496,0.0495,0.0499,0.0504,0.0472,0.047,0.0496,0.0496,0.0496,0.0503,0,0.0136,0.0214,0.0251,0.0315,0.0362,0.0398,0.0434,0.0481,0.0513,0.0552,0.0569,0.0594,0.0576,0.058,0.0573,0.0537,0.0531,0.0529,0.0483,0.0483,0.0451,0.0471,0.0495,0.05,0.0504,0.0504,0.0504,0,0.0164,0.021,0.0282,0.0357,0.0381,0.0415,0.0476,0.0518,0.0578,0.0603,0.0641,0.0652,0.067,0.0631,0.061,0.0608,0.0564,0.0532,0.0531,0.0491,0.0453,0.0478,0.0502,0.0484,0.0506,0.0506,0.0506,0,0.0143,0.0229,0.0283,0.0311,0.0398,0.0426,0.0466,0.0529,0.0571,0.0633,0.0664,0.0696,0.0703,0.0668,0.0626,0.061,0.0588,0.0553,0.0491,0.0489,0.0497,0.0494,0.0499,0.0523,0.0523,0.0523,0.0523,0,0.0158,0.0199,0.0275,0.031,0.0358,0.0421,0.0481,0.0523,0.0592,0.0651,0.0686,0.0727,0.0705,0.0701,0.065,0.0591,0.0609,0.0509,0.0487,0.051,0.0509,0.0482,0.0442,0.0524,0.0523,0.0523,0.0523,0,0.0145,0.0195,0.0257,0.0338,0.0358,0.0393,0.0483,0.0533,0.0591,0.0665,0.0685,0.0745,0.0742,0.0722,0.0666,0.0614,0.0539,0.0524,0.0566,0.0549,0.0454,0.0415,0.0316,0.0376,0.0459,0.0459,0.0458,0,0.0162,0.0196,0.0266,0.0287,0.0325,0.0385,0.0432,0.0515,0.0576,0.0678,0.0715,0.0744,0.0781,0.0718,0.0638,0.0567,0.052,0.0512,0.0474,0.0464,0.0404,0.0332,0.0387,0.051,0.051,0.051,0.051,0,0.0189,0.0203,0.0243,0.0285,0.0328,0.0392,0.047,0.0515,0.0622,0.0689,0.0775,0.0811,0.0774,0.0732,0.063,0.0568,0.0498,0.0502,0.0484,0.0439,0.037,0.0413,0.0503,0.0508,0.0508,0.0509,0.0509,0.0509,0.0194,0.0212,0.0253,0.0292,0.0339,0.0407,0.0463,0.0554,0.065,0.077,0.0806,0.0881,0.0828,0.0701,0.0619,0.049,0.0457,0.0441,0.0396,0.0326,0.0371,0.0459,0.0434,0.0434,0.0433,0.0433,0.0433,0,0.0205,0.0227,0.0264,0.0316,0.0373,0.0399,0.0498,0.0564,0.0675,0.079,0.0875,0.0926,0.0828,0.0724,0.0542,0.043,0.0411,0.0367,0.0307,0.0378,0.0463,0.0456,0.0444,0.0444,0.0444,0.0444,0.0444,0.0444,0.0208,0.0238,0.0259,0.0341,0.0383,0.0459,0.0514,0.0604,0.07,0.0846,0.0933,0.1005,0.0979,0.062,0.0418,0.0365,0.0329,0.0212,0.025,0.0329,0.0334,0.0338,0.0327,0.0287,0.0287,0.0226,0.0225,0.0225]}],[{"header":{"parameterUnit":"m.s-1","parameterCategory":2,"la1":30.2991,"la2":30.254,"lo1":-89.0895,"lo2":-89.0444,"dy":0.0017,"dx":0.0017,"nx":28,"ny":28,"refTime":"2024-07-11T09:00:00:Z","depth":"2","parameterNumber":2,"parameterNumberName":"U-component_of_CURRENTS"},"data":[0,0,0,0,0,0,0,0,0,0,0,0,0,0,0,0,0,0,0,0,0,0,0,0,0,0,0,0,0,0,0,0,0,0,0,0,0,0,0,0,0,0,0,0,0,0,0,0,0,0,0,0,0,0,0,0,0,0,0.0356,0.0355,0,0.0541,0.0546,0.055,0.0903,0.0907,0.0911,0.0915,0.0957,0.0954,0.0952,0,0,0,0,0,0,0,0,0,0,0,0,0,0.0325,0.0326,0.0356,0.0355,0.0355,0.0541,0.0546,0.0551,0.0902,0.0907,0.0913,0.0917,0.0958,0.0955,0.0951,0,0,0,0,0,0,0,0,0,0,0,0,0,0.0433,0.0326,0.0356,0.0532,0.0548,0.0539,0.0546,0.0553,0.0901,0.0907,0.0914,0.092,0.0959,0.0955,0.0951,0.0795,0,0,0.0938,0.0936,0,0,0,0,0,0,0,0,0.0427,0.0438,0.0506,0.052,0.0537,0.0681,0.0549,0.0617,0.0899,0.0796,0.0916,0.0923,0.0828,0.0835,0.0898,0.0797,0.0799,0.0937,0.0935,0.0933,0.0931,0,0,0,0,0,0,0,0.0419,0.0432,0.0458,0.0505,0.0523,0.0606,0.0632,0.0567,0.0793,0.0806,0.0825,0.0799,0.0841,0.0902,0.09,0.0799,0.0937,0.0933,0.0931,0.0929,0.11,0.1107,0,0,0,0,0,0,0.0331,0.0423,0.0451,0.046,0.0465,0.0599,0.063,0.0651,0.0797,0.0819,0.0793,0.0814,0.0906,0.0905,0.0902,0.0974,0.0933,0.0929,0.0926,0.1093,0.1102,0.1109,0,0,0,0,0,0,0.0331,0.0334,0.0443,0.0422,0.0438,0.059,0.0613,0.065,0.0748,0.0784,0.0811,0.0852,0.0911,0.0908,0.098,0.0968,0.0927,0.0923,0.1085,0.1096,0.1106,0.0953,0,0,0,0,0,0,0.033,0.0334,0.0388,0.0416,0.0435,0.0451,0.0605,0.0649,0.0705,0.0738,0.0839,0.0851,0.0916,0.0988,0.0976,0.0961,0.0919,0.1076,0.109,0.1102,0.0949,0.0957,0.0964,0,0,0,0,0,0.0329,0.0394,0.0391,0.0396,0.0484,0.0446,0.0468,0.0615,0.0701,0.0733,0.0884,0.085,0.1069,0.0986,0.0972,0.0955,0.1069,0.1086,0.1101,0.0946,0.0956,0.0964,0,0,0,0,0,0,0.0415,0.0431,0.0433,0.05,0.0452,0.0496,0.0566,0.0592,0.0735,0.0812,0.0871,0.0892,0.0959,0.101,0.0918,0.1084,0.1085,0.1099,0.0973,0.0982,0.099,0.1006,0.0916,0,0,0,0,0,0.0428,0.0507,0.0438,0.0491,0.0466,0.0493,0.0518,0.0572,0.0649,0.0726,0.0796,0.0927,0.1002,0.1036,0.1111,0.112,0.1111,0.1147,0.1154,0.1159,0.1188,0.1172,0.1174,0.1162,0.1162,0.1162,0,0,0.0448,0.0487,0.0517,0.0514,0.0524,0.0488,0.054,0.0562,0.06,0.0684,0.0836,0.0904,0.1019,0.1109,0.1144,0.1145,0.1158,0.1179,0.1179,0.1207,0.1188,0.1187,0.1186,0.1173,0.1171,0.1169,0,0,0.0501,0.0564,0.0608,0.0567,0.0542,0.0542,0.0517,0.0536,0.0643,0.0721,0.0834,0.0913,0.1035,0.1113,0.1166,0.1246,0.1184,0.1299,0.132,0.1302,0.1298,0.1294,0.122,0.1211,0.1312,0.1312,0.1312,0,0.0538,0.0566,0.0598,0.0589,0.0555,0.0541,0.049,0.057,0.0637,0.0688,0.0792,0.0983,0.1047,0.1099,0.1224,0.1234,0.1227,0.1226,0.129,0.1288,0.1286,0.1212,0.1203,0.1307,0.1307,0.1308,0.1308,0,0.0554,0.0575,0.0586,0.0583,0.0554,0.0517,0.0513,0.0602,0.0705,0.0727,0.0836,0.0963,0.1073,0.1115,0.1216,0.1245,0.1236,0.1257,0.1207,0.1274,0.1196,0.119,0.1299,0.1301,0.1303,0.1304,0,0,0.0667,0.0604,0.0629,0.058,0.0539,0.0507,0.0595,0.0596,0.0674,0.077,0.0815,0.0999,0.1017,0.1095,0.1151,0.1197,0.117,0.1269,0.1271,0.1091,0.11,0.1027,0.1012,0.119,0.119,0.119,0.1018,0,0.0662,0.0624,0.0612,0.0554,0.0482,0.051,0.0578,0.0612,0.0709,0.0772,0.0836,0.0911,0.1009,0.1075,0.111,0.1142,0.1165,0.1214,0.1161,0.1159,0.0997,0.1008,0.1018,0.0864,0.1012,0.1011,0.101,0,0.0704,0.0656,0.0571,0.0515,0.0498,0.0493,0.0588,0.0625,0.0697,0.08,0.0827,0.0853,0.0873,0.1002,0.1005,0.1034,0.1106,0.1143,0.1135,0.1127,0.1078,0.0853,0.0847,0.0999,0.1,0.1001,0.1002,0,0.0749,0.0671,0.0604,0.0562,0.0483,0.0539,0.0547,0.0632,0.0703,0.0763,0.0839,0.0785,0.0827,0.0848,0.0919,0.0982,0.0915,0.0963,0.0941,0.0932,0.0968,0.0962,0.1028,0.1028,0.1028,0.1029,0.1029,0,0.0753,0.0715,0.0631,0.0571,0.0571,0.0524,0.0586,0.0674,0.073,0.0767,0.0807,0.0859,0.0836,0.0786,0.0832,0.0805,0.0806,0.094,0.0895,0.0918,0.0911,0.1088,0.1098,0.1022,0.1024,0.1025,0.1026,0,0.077,0.0723,0.0633,0.0561,0.0567,0.0566,0.06,0.0657,0.076,0.0821,0.0841,0.0875,0.0849,0.0769,0.076,0.0716,0.0678,0.0706,0.0695,0.0655,0.0727,0.0733,0.0621,0.0618,0.0614,0.0612,0.061,0,0.0748,0.0695,0.0623,0.0622,0.0586,0.0591,0.0626,0.0687,0.0731,0.0854,0.0863,0.0874,0.0861,0.0687,0.0641,0.0539,0.0647,0.0489,0.0648,0.0724,0.0691,0.0702,0.0712,0.0606,0.0604,0.0603,0.0601,0,0.0688,0.0697,0.0661,0.0591,0.0615,0.0618,0.0652,0.0696,0.0777,0.0873,0.0942,0.0917,0.0824,0.068,0.0523,0.0496,0.0468,0.0455,0.0513,0.0717,0.0699,0.067,0.0683,0.0586,0.0588,0.0589,0.059,0.059,0.0692,0.0697,0.0658,0.0638,0.0671,0.0681,0.069,0.0722,0.0794,0.0893,0.0837,0.0805,0.0646,0.0446,0.0389,0.0409,0.047,0.0436,0.0446,0.0457,0.0495,0.0475,0.0322,0.0322,0.0322,0.0322,0.0322,0,0.0617,0.0691,0.0685,0.0699,0.0742,0.0715,0.075,0.074,0.0819,0.0826,0.0814,0.0551,0.0414,0.0382,0.0425,0.0352,0.0413,0.0328,0.0435,0.0448,0.046,0.0505,0.0331,0.0331,0.0331,0.0331,0,0,0.0594,0.0605,0.0651,0.0782,0.0816,0.0813,0.0841,0.0818,0.0788,0.0721,0.0675,0.044,0.0381,0.0324,0.0289,0.0377,0.0432,0.037,0.0366,0.0512,0.0525,0.0516,0.0597,0,0,0,0,0]},{"header":{"parameterUnit":"m.s-1","parameterCategory":2,"la1":30.2991,"la2":30.254,"lo1":-89.0895,"lo2":-89.0444,"dy":0.0017,"dx":0.0017,"nx":28,"ny":28,"refTime":"2024-07-11T09:00:00:Z","depth":"2","parameterNumber":3,"parameterNumberName":"V-component_of_CURRENTS"},"data":[0,0,0,0,0,0,0,0,0,0,0,0,0,0,0,0,0,0,0,0,0,0,0,0,0,0,0,0,0,0,0,0,0,0,0,0,0,0,0,0,0,0,0,0,0,0,0,0,0,0,0,0,0,0,0,0,0,0,-0.0106,-0.0107,0,-0.0169,-0.0169,-0.017,-0.0199,-0.0199,-0.0199,-0.0199,-0.0186,-0.0185,-0.0185,0,0,0,0,0,0,0,0,0,0,0,0,0,-0.0084,-0.0084,-0.0106,-0.0107,-0.0108,-0.0168,-0.0169,-0.017,-0.0199,-0.0199,-0.0199,-0.0199,-0.0186,-0.0186,-0.0185,0,0,0,0,0,0,0,0,0,0,0,0,0,-0.0113,-0.0084,-0.0106,-0.0131,-0.0134,-0.0168,-0.0169,-0.017,-0.0199,-0.0199,-0.0199,-0.0199,-0.0186,-0.0186,-0.0185,-0.0176,0,0,-0.0183,-0.0182,0,0,0,0,0,0,0,0,-0.0111,-0.0113,-0.0127,-0.013,-0.0133,-0.0178,-0.0157,-0.0169,-0.0199,-0.0172,-0.0199,-0.0199,-0.0177,-0.0177,-0.0187,-0.0175,-0.0175,-0.0183,-0.0182,-0.0182,-0.0182,0,0,0,0,0,0,0,-0.0109,-0.0111,-0.0129,-0.0128,-0.0132,-0.0165,-0.0168,-0.016,-0.017,-0.0174,-0.0177,-0.0187,-0.0178,-0.0187,-0.0186,-0.0174,-0.0183,-0.0182,-0.0181,-0.0181,-0.0117,-0.0116,0,0,0,0,0,0,-0.0101,-0.0109,-0.0127,-0.0131,-0.0125,-0.0165,-0.0168,-0.0162,-0.0171,-0.0174,-0.0187,-0.0189,-0.0189,-0.0187,-0.0186,-0.0157,-0.0182,-0.0181,-0.0181,-0.0119,-0.0117,-0.0116,0,0,0,0,0,0,-0.01,-0.0101,-0.0124,-0.0124,-0.013,-0.0164,-0.0157,-0.0163,-0.0173,-0.0182,-0.0184,-0.0192,-0.0189,-0.0187,-0.0179,-0.0157,-0.0181,-0.018,-0.012,-0.0118,-0.0117,-0.0111,0,0,0,0,0,0,-0.0099,-0.01,-0.0124,-0.0123,-0.0129,-0.014,-0.0157,-0.0164,-0.018,-0.0182,-0.0186,-0.0186,-0.0189,-0.018,-0.0178,-0.0157,-0.018,-0.0122,-0.0119,-0.0117,-0.0113,-0.0109,-0.0106,0,0,0,0,0,-0.0098,-0.0103,-0.0124,-0.0129,-0.0149,-0.014,-0.0146,-0.0171,-0.018,-0.0181,-0.0186,-0.0186,-0.0163,-0.018,-0.0177,-0.0155,-0.0123,-0.012,-0.0117,-0.0114,-0.011,-0.0106,0,0,0,0,0,0,-0.011,-0.0107,-0.013,-0.0138,-0.0145,-0.0145,-0.0153,-0.0169,-0.0176,-0.0169,-0.0182,-0.0181,-0.0161,-0.0157,-0.0175,-0.0126,-0.0138,-0.0134,-0.0136,-0.0132,-0.0128,-0.0122,-0.0179,0,0,0,0,0,-0.0125,-0.0132,-0.0129,-0.0146,-0.0131,-0.0144,-0.0155,-0.0158,-0.0156,-0.016,-0.0171,-0.0163,-0.0147,-0.0141,-0.0129,-0.0111,-0.012,-0.009,-0.0086,-0.0084,-0.0075,-0.0095,-0.0093,-0.0107,-0.0107,-0.0107,0,0,-0.0127,-0.0143,-0.0142,-0.0152,-0.0147,-0.0123,-0.0148,-0.0135,-0.0129,-0.0154,-0.0152,-0.0154,-0.0139,-0.0119,-0.0108,-0.0115,-0.008,-0.008,-0.0078,-0.007,-0.0092,-0.0091,-0.009,-0.0105,-0.0105,-0.0105,0,0,-0.0118,-0.0142,-0.0126,-0.0122,-0.0121,-0.012,-0.0111,-0.0104,-0.0111,-0.0107,-0.0117,-0.0115,-0.0099,-0.0094,-0.0082,-0.0051,-0.0062,-0.0036,-0.0017,-0.0037,-0.0037,-0.0037,-0.0036,-0.0036,-0.0036,-0.0036,-0.0036,0,-0.015,-0.0121,-0.0124,-0.0103,-0.0101,-0.0107,-0.0073,-0.0074,-0.0082,-0.0082,-0.0097,-0.0086,-0.0083,-0.0056,-0.0045,-0.0044,-0.0053,-0.004,-0.0036,-0.0036,-0.0036,-0.0036,-0.0036,-0.0035,-0.0035,-0.0035,-0.0035,0,-0.0089,-0.0095,-0.0073,-0.0054,-0.0047,-0.0021,-0.0004,-0.0,-0.0011,-0.0026,-0.0016,-0.003,-0.0023,-0.0019,-0.0022,-0.001,-0.0015,-0.0034,-0.0054,-0.0035,-0.0035,-0.0035,-0.0034,-0.0034,-0.0034,-0.0035,0,0,-0.0101,-0.005,-0.0044,-0.0042,-0.0019,-0.0002,0.0033,0.0051,0.0067,0.0045,0.0043,0.0058,0.0033,0.0045,0.0031,0.0012,0.0001,-0.001,-0.0011,-0.0021,-0.0031,0.0057,0.0065,-0.0029,-0.0029,-0.0029,-0.0028,0,-0.0072,-0.0025,-0.0001,0.0029,0.0055,0.0067,0.0091,0.0104,0.0105,0.0099,0.0082,0.0081,0.0064,0.0062,0.0041,0.0008,-0.0,0.0004,-0.0036,-0.0036,0.0028,0.0067,0.0014,0.0019,-0.0029,-0.0029,-0.0029,0,-0.0024,-0.0009,0.0039,0.0054,0.0076,0.009,0.0129,0.0153,0.0163,0.0163,0.0158,0.0135,0.0118,0.0087,0.0048,0.0048,0.0021,-0.001,-0.0012,0.007,0.0052,-0.0008,0.002,-0.0029,-0.0029,-0.0029,-0.0029,0,-0.0037,0.0008,0.0035,0.0045,0.0083,0.0101,0.0126,0.0161,0.0191,0.0196,0.021,0.0176,0.016,0.0113,0.0075,0.0052,0.0023,-0.0019,0.0041,0.0046,-0.0003,0.0,-0.004,-0.004,-0.004,-0.004,-0.004,0,-0.0039,-0.0018,0.0026,0.0036,0.0068,0.0098,0.0138,0.0171,0.0209,0.0245,0.0233,0.0244,0.0161,0.0139,0.0089,0.0088,0.0042,0.0065,0.0059,0.0003,0.0007,-0.0042,-0.0042,-0.004,-0.004,-0.004,-0.004,0,-0.0062,-0.0027,-0.0007,0.0037,0.0054,0.0078,0.0149,0.019,0.0234,0.0281,0.0285,0.0282,0.0258,0.0209,0.0132,0.0131,0.0101,0.0112,0.0075,0.0067,0.0128,0.0128,0.0168,0.0171,0.0174,0.0176,0.0178,0,-0.0059,-0.006,-0.0013,0.001,0.0027,0.0073,0.0119,0.0186,0.0235,0.031,0.0327,0.0327,0.0346,0.0307,0.0244,0.0209,0.017,0.0183,0.0146,0.0163,0.0151,0.0147,0.0144,0.0069,0.007,0.007,0.0071,0,-0.0071,-0.0066,-0.0029,0.0005,0.0045,0.0106,0.0169,0.021,0.03,0.0362,0.0431,0.0456,0.0416,0.0347,0.0324,0.0289,0.0186,0.0204,0.0202,0.0055,0.0078,0.0064,0.0062,0.0077,0.0077,0.0076,0.0076,0.0075,-0.0071,-0.0048,-0.0011,0.0031,0.0082,0.0151,0.0204,0.0285,0.0386,0.0493,0.047,0.051,0.0373,0.0337,0.0289,0.0269,0.0274,0.023,0.0223,0.0216,0.0236,0.0265,0.0303,0.0304,0.0304,0.0305,0.0305,0,-0.0076,-0.0029,0.0017,0.009,0.0152,0.0169,0.026,0.0331,0.0457,0.0528,0.0585,0.0437,0.0377,0.0289,0.0262,0.0257,0.02,0.0245,0.0127,0.0123,0.0118,0.0127,0.0168,0.0168,0.0168,0.0168,0,0,-0.0057,-0.0018,0.0026,0.015,0.0203,0.0292,0.0348,0.0449,0.0514,0.0594,0.0599,0.0509,0.0391,0.0292,0.0216,0.0224,0.02,0.023,0.034,0.0207,0.0203,0.0107,0.0119,0,0,0,0,0]}],[{"header":{"parameterUnit":"m.s-1","parameterCategory":2,"la1":30.2991,"la2":30.254,"lo1":-89.0895,"lo2":-89.0444,"dy":0.0017,"dx":0.0017,"nx":28,"ny":28,"refTime":"2024-07-11T09:00:00:Z","depth":"4","parameterNumber":2,"parameterNumberName":"U-component_of_CURRENTS"},"data":[0,0,0,0,0,0,0,0,0,0,0,0,0,0,0,0,0,0,0,0,0,0,0,0,0,0,0,0,0,0,0,0,0,0,0,0,0,0,0,0,0,0,0,0,0,0,0,0,0,0,0,0,0,0,0,0,0,0,-0.075,-0.0749,0,-0.0719,-0.0719,-0.0719,-0.073,-0.0731,-0.0731,-0.0732,-0.0837,-0.0839,-0.0841,0,0,0,0,0,0,0,0,0,0,0,0,0,-0.0703,-0.0705,-0.075,-0.0749,-0.0749,-0.0719,-0.0719,-0.0719,-0.073,-0.0731,-0.0731,-0.0732,-0.0836,-0.0839,-0.0842,0,0,0,0,0,0,0,0,0,0,0,0,0,-0.0705,-0.0705,-0.075,-0.075,-0.0749,-0.0719,-0.0719,-0.0719,-0.073,-0.0731,-0.0732,-0.0732,-0.0835,-0.0838,-0.0842,-0.0847,0,0,-0.0852,-0.0854,0,0,0,0,0,0,0,0,-0.0705,-0.0707,-0.075,-0.0749,-0.0749,-0.0728,-0.0741,-0.0768,-0.073,-0.0739,-0.0732,-0.0733,-0.0811,-0.0817,-0.081,-0.0852,-0.0856,-0.0853,-0.0855,-0.0856,-0.0857,0,0,0,0,0,0,0,-0.0705,-0.0708,-0.0739,-0.0749,-0.0749,-0.0711,-0.0714,-0.0745,-0.0775,-0.0738,-0.0739,-0.0732,-0.0812,-0.0806,-0.0813,-0.0858,-0.0853,-0.0856,-0.0858,-0.0859,-0.1002,-0.1004,0,0,0,0,0,0,-0.0711,-0.0709,-0.074,-0.0738,-0.0727,-0.0712,-0.0715,-0.0735,-0.0772,-0.0776,-0.0732,-0.0733,-0.08,-0.0808,-0.0817,-0.0956,-0.0856,-0.0859,-0.0861,-0.1001,-0.1003,-0.1005,0,0,0,0,0,0,-0.071,-0.0715,-0.0742,-0.0719,-0.072,-0.0713,-0.0735,-0.0734,-0.0754,-0.0765,-0.0773,-0.0755,-0.0801,-0.0812,-0.0881,-0.0956,-0.0861,-0.0864,-0.0999,-0.1001,-0.1004,-0.1153,0,0,0,0,0,0,-0.071,-0.0716,-0.0738,-0.0721,-0.0721,-0.0747,-0.0734,-0.0733,-0.0746,-0.0748,-0.0787,-0.0795,-0.0802,-0.0876,-0.0884,-0.0959,-0.0867,-0.0996,-0.1,-0.1003,-0.1146,-0.116,-0.1172,0,0,0,0,0,-0.0709,-0.0736,-0.074,-0.0744,-0.0752,-0.0748,-0.0746,-0.0742,-0.0747,-0.0762,-0.0798,-0.0796,-0.0902,-0.0881,-0.089,-0.0967,-0.0995,-0.0999,-0.1003,-0.114,-0.1157,-0.1172,0,0,0,0,0,0,-0.0719,-0.0738,-0.0743,-0.0774,-0.0772,-0.075,-0.0763,-0.0758,-0.0792,-0.0811,-0.0823,-0.0835,-0.0917,-0.0912,-0.0887,-0.1012,-0.0946,-0.0952,-0.1047,-0.1064,-0.1077,-0.112,-0.087,0,0,0,0,0,-0.0733,-0.0764,-0.0765,-0.0786,-0.0796,-0.0785,-0.0785,-0.0786,-0.0804,-0.0819,-0.0846,-0.0883,-0.0933,-0.0976,-0.0998,-0.1078,-0.1041,-0.1127,-0.1141,-0.1153,-0.1191,-0.1189,-0.1206,-0.1018,-0.1018,-0.1018,0,0,-0.0738,-0.0752,-0.0768,-0.079,-0.0793,-0.0801,-0.079,-0.0806,-0.082,-0.0829,-0.0883,-0.0927,-0.0957,-0.1043,-0.1081,-0.1061,-0.1178,-0.1158,-0.1168,-0.1201,-0.1195,-0.1213,-0.123,-0.102,-0.102,-0.1019,0,0,-0.0752,-0.0786,-0.0815,-0.0822,-0.0835,-0.0829,-0.0842,-0.085,-0.0873,-0.0929,-0.0944,-0.1041,-0.1093,-0.1151,-0.1183,-0.1282,-0.1235,-0.1287,-0.142,-0.1418,-0.1434,-0.1448,-0.1388,-0.1395,-0.1313,-0.1313,-0.1313,0,-0.0756,-0.0787,-0.0817,-0.0838,-0.0847,-0.0848,-0.087,-0.0882,-0.0911,-0.0955,-0.0965,-0.1122,-0.1148,-0.1289,-0.1342,-0.132,-0.1289,-0.1363,-0.1438,-0.1451,-0.1463,-0.1398,-0.1405,-0.132,-0.132,-0.1319,-0.1318,0,-0.0772,-0.0805,-0.0822,-0.0855,-0.0881,-0.0891,-0.0919,-0.0956,-0.0996,-0.1024,-0.1174,-0.1255,-0.1364,-0.1393,-0.1417,-0.1544,-0.148,-0.144,-0.1403,-0.1491,-0.1416,-0.142,-0.1331,-0.1329,-0.1326,-0.1325,0,0,-0.0759,-0.082,-0.0827,-0.0852,-0.0891,-0.091,-0.0965,-0.102,-0.1079,-0.1173,-0.1295,-0.1442,-0.1531,-0.1576,-0.1638,-0.1685,-0.1737,-0.1635,-0.1631,-0.1586,-0.17,-0.1499,-0.1482,-0.1718,-0.172,-0.1722,-0.16,0,-0.0755,-0.0795,-0.0836,-0.0877,-0.0904,-0.095,-0.0982,-0.1049,-0.1146,-0.1258,-0.1407,-0.1537,-0.1581,-0.1695,-0.1757,-0.1729,-0.1762,-0.1772,-0.1613,-0.1608,-0.1428,-0.1486,-0.173,-0.1603,-0.1603,-0.1604,-0.1604,0,-0.0757,-0.0784,-0.0832,-0.0894,-0.0913,-0.0953,-0.1066,-0.1113,-0.1265,-0.1371,-0.1582,-0.1656,-0.1817,-0.1826,-0.1861,-0.1867,-0.1824,-0.1791,-0.1783,-0.1559,-0.1416,-0.1502,-0.161,-0.161,-0.161,-0.1609,-0.1609,0,-0.0728,-0.0788,-0.0828,-0.0845,-0.0909,-0.0978,-0.1038,-0.117,-0.1242,-0.15,-0.1585,-0.1772,-0.1855,-0.1879,-0.1824,-0.1852,-0.1789,-0.178,-0.1559,-0.154,-0.1692,-0.1679,-0.1807,-0.1807,-0.1807,-0.1808,-0.1808,0,-0.0698,-0.0733,-0.0831,-0.0846,-0.089,-0.0996,-0.1102,-0.1202,-0.1394,-0.1459,-0.1675,-0.1713,-0.1872,-0.1837,-0.1825,-0.1672,-0.1767,-0.1596,-0.1514,-0.1748,-0.1743,-0.1691,-0.1679,-0.1803,-0.1804,-0.1805,-0.1806,0,-0.0664,-0.0708,-0.0753,-0.0847,-0.088,-0.0945,-0.1105,-0.1172,-0.1376,-0.1494,-0.1572,-0.1666,-0.1568,-0.1636,-0.1602,-0.1594,-0.1512,-0.1435,-0.1643,-0.157,-0.1271,-0.1268,-0.1196,-0.1188,-0.1181,-0.1176,-0.1171,0,-0.0641,-0.0668,-0.0746,-0.0752,-0.0808,-0.0922,-0.0954,-0.1166,-0.123,-0.1367,-0.1354,-0.1351,-0.1373,-0.116,-0.1243,-0.1211,-0.121,-0.1229,-0.134,-0.129,-0.1218,-0.1225,-0.1231,-0.1161,-0.1159,-0.1158,-0.1156,0,-0.0599,-0.0641,-0.0673,-0.0679,-0.0728,-0.076,-0.0848,-0.0884,-0.1064,-0.1229,-0.1125,-0.1124,-0.0982,-0.0948,-0.095,-0.0926,-0.1274,-0.1162,-0.1178,-0.1282,-0.1247,-0.1183,-0.1197,-0.1133,-0.1136,-0.1139,-0.114,0,-0.0576,-0.0568,-0.0597,-0.0608,-0.0627,-0.0595,-0.0661,-0.0674,-0.0753,-0.0927,-0.0812,-0.0815,-0.0861,-0.078,-0.0736,-0.0746,-0.0764,-0.0859,-0.0891,-0.0917,-0.0896,-0.0815,-0.0507,0,0,0,0,0,-0.0544,-0.0518,-0.0508,-0.0482,-0.0493,-0.0499,-0.0554,-0.0621,-0.0757,-0.0645,-0.0774,-0.063,-0.0598,-0.0548,-0.0499,-0.0607,-0.0775,-0.0558,-0.0904,-0.1008,-0.1034,-0.1043,0,0,0,0,0,0,-0.0507,-0.05,-0.0482,-0.0395,-0.035,-0.0334,-0.0368,-0.0445,-0.0379,-0.0516,-0.0428,-0.0601,-0.0489,-0.0579,-0.0471,-0.0485,-0.0701,-0.0586,-0.0586,-0.0993,-0.1017,-0.1038,-0.1056,0,0,0,0,0]},{"header":{"parameterUnit":"m.s-1","parameterCategory":2,"la1":30.2991,"la2":30.254,"lo1":-89.0895,"lo2":-89.0444,"dy":0.0017,"dx":0.0017,"nx":28,"ny":28,"refTime":"2024-07-11T09:00:00:Z","depth":"4","parameterNumber":3,"parameterNumberName":"V-component_of_CURRENTS"},"data":[0,0,0,0,0,0,0,0,0,0,0,0,0,0,0,0,0,0,0,0,0,0,0,0,0,0,0,0,0,0,0,0,0,0,0,0,0,0,0,0,0,0,0,0,0,0,0,0,0,0,0,0,0,0,0,0,0,0,0.0164,0.0164,0,0.0177,0.0177,0.0176,0.0203,0.0204,0.0205,0.0205,0.0222,0.0222,0.0221,0,0,0,0,0,0,0,0,0,0,0,0,0,0.0151,0.0151,0.0164,0.0164,0.0165,0.0177,0.0177,0.0176,0.0203,0.0204,0.0205,0.0206,0.0222,0.0222,0.0221,0,0,0,0,0,0,0,0,0,0,0,0,0,0.0156,0.0151,0.0164,0.0182,0.0184,0.0177,0.0177,0.0176,0.0202,0.0204,0.0205,0.0206,0.0222,0.0222,0.0221,0.0192,0,0,0.0219,0.0219,0,0,0,0,0,0,0,0,0.0156,0.0156,0.0179,0.0181,0.0183,0.0193,0.0178,0.0183,0.0202,0.0192,0.0205,0.0207,0.0214,0.0214,0.0208,0.0192,0.0193,0.0219,0.0219,0.0219,0.0219,0,0,0,0,0,0,0,0.0155,0.0155,0.0165,0.018,0.0182,0.0186,0.0188,0.0179,0.0193,0.0193,0.0196,0.0202,0.0215,0.0209,0.0209,0.0193,0.0219,0.0219,0.0219,0.0218,0.017,0.0169,0,0,0,0,0,0,0.016,0.0155,0.0165,0.0166,0.0177,0.0186,0.0188,0.0185,0.0193,0.0196,0.0201,0.0204,0.0209,0.021,0.021,0.0201,0.0219,0.0218,0.0218,0.0171,0.017,0.0169,0,0,0,0,0,0,0.0159,0.016,0.0164,0.0164,0.0166,0.0185,0.0182,0.0185,0.0188,0.02,0.0203,0.0203,0.021,0.0211,0.0205,0.0201,0.0218,0.0218,0.0172,0.0171,0.017,0.0167,0,0,0,0,0,0,0.0159,0.016,0.0157,0.0164,0.0166,0.0158,0.0181,0.0184,0.0191,0.0195,0.0202,0.0204,0.0211,0.0205,0.0204,0.0201,0.0217,0.0174,0.0172,0.017,0.0168,0.0166,0.0164,0,0,0,0,0,0.0158,0.0141,0.0157,0.0158,0.0162,0.0158,0.0158,0.0174,0.019,0.0182,0.0192,0.0204,0.0193,0.0204,0.0203,0.0199,0.0174,0.0172,0.017,0.0169,0.0166,0.0164,0,0,0,0,0,0,0.0128,0.0143,0.016,0.0148,0.0157,0.0164,0.0159,0.0172,0.0172,0.0175,0.0192,0.0194,0.0183,0.0186,0.0198,0.0177,0.0185,0.0183,0.0185,0.0182,0.018,0.0228,0.0217,0,0,0,0,0,0.0123,0.0121,0.0135,0.0129,0.0131,0.0147,0.0148,0.0156,0.0161,0.0162,0.0172,0.0174,0.0169,0.0174,0.0163,0.0155,0.0191,0.015,0.0148,0.0146,0.0182,0.0252,0.0261,0.0162,0.0162,0.0162,0,0,0.0114,0.0121,0.0121,0.0124,0.0132,0.0114,0.0149,0.0144,0.0125,0.0162,0.0142,0.016,0.0161,0.0151,0.0147,0.0159,0.0177,0.0143,0.0142,0.018,0.0251,0.0262,0.0271,0.0161,0.0161,0.0161,0,0,0.0089,0.0096,0.0088,0.0084,0.0093,0.0092,0.0092,0.0099,0.01,0.0087,0.0108,0.0126,0.0116,0.0125,0.0126,0.01,0.0154,0.0101,0.0142,0.0208,0.0218,0.0228,0.0229,0.0239,0.0111,0.0111,0.0111,0,0.0079,0.0064,0.0084,0.0066,0.0053,0.008,0.0052,0.0047,0.0052,0.0044,0.0076,0.01,0.0099,0.0108,0.0123,0.0096,0.0148,0.0155,0.021,0.0221,0.0231,0.023,0.0241,0.011,0.0111,0.0111,0.0111,0,0.0047,0.003,0.0019,0.0005,-0.001,-0.0031,-0.0035,-0.0046,-0.0033,-0.0029,-0.0007,0.0038,0.0076,0.0067,0.0102,0.0168,0.0181,0.0193,0.0229,0.0242,0.0237,0.0249,0.011,0.011,0.011,0.011,0,0,0.0034,0.0004,-0.0001,-0.0027,-0.0049,-0.007,-0.0108,-0.0136,-0.0161,-0.0106,-0.0095,-0.0049,0.0041,0.0056,0.0115,0.0195,0.0287,0.0264,0.0268,0.0283,0.0428,0.0278,0.0276,0.0352,0.0355,0.0358,0.0376,0,0.0003,-0.0045,-0.0057,-0.0122,-0.0153,-0.0165,-0.0206,-0.0228,-0.0227,-0.0214,-0.0123,-0.0081,0.0016,0.0084,0.0184,0.0257,0.0332,0.028,0.0399,0.04,0.0283,0.0289,0.0368,0.0385,0.0388,0.039,0.0392,0,-0.0026,-0.0058,-0.0121,-0.0193,-0.0209,-0.0251,-0.0315,-0.0343,-0.0332,-0.0301,-0.0197,-0.0113,0.003,0.012,0.0308,0.0296,0.0393,0.0448,0.045,0.0336,0.0275,0.0382,0.0414,0.0412,0.041,0.0409,0.0408,0,-0.0044,-0.0112,-0.0168,-0.0192,-0.0261,-0.0304,-0.034,-0.0374,-0.0399,-0.0316,-0.0287,-0.0118,-0.0015,0.0166,0.0304,0.0354,0.0472,0.0519,0.0456,0.0443,0.0578,0.0569,0.0667,0.0667,0.0666,0.0666,0.0666,0,-0.0078,-0.013,-0.0185,-0.0217,-0.0305,-0.0333,-0.0412,-0.042,-0.0413,-0.0426,-0.0286,-0.0226,0.003,0.0119,0.028,0.037,0.0449,0.0473,0.0455,0.0562,0.0551,0.0583,0.0573,0.0667,0.0667,0.0667,0.0667,0,-0.0101,-0.0128,-0.0205,-0.0282,-0.0314,-0.0375,-0.0456,-0.05,-0.0474,-0.0468,-0.041,-0.0287,-0.016,-0.0016,0.0199,0.0282,0.0396,0.0404,0.0438,0.0419,0.0339,0.0328,0.038,0.0375,0.0371,0.0367,0.0364,0,-0.0122,-0.0152,-0.0247,-0.0299,-0.0344,-0.0428,-0.0484,-0.0506,-0.0523,-0.0511,-0.0484,-0.0397,-0.0298,-0.0136,0.0022,0.0207,0.0251,0.0295,0.0422,0.0341,0.0319,0.0315,0.031,0.0358,0.0357,0.0356,0.0355,0,-0.0167,-0.0191,-0.0253,-0.0333,-0.0409,-0.0497,-0.0557,-0.0564,-0.0568,-0.0568,-0.0502,-0.0415,-0.0344,-0.0168,-0.0087,0.0074,0.027,0.0255,0.0268,0.0389,0.0316,0.0297,0.0296,0.0341,0.0343,0.0344,0.0345,0,-0.0205,-0.025,-0.0301,-0.0372,-0.0468,-0.0524,-0.0562,-0.0567,-0.0579,-0.0535,-0.053,-0.0436,-0.037,-0.0247,-0.0154,-0.0056,0.0034,0.0137,0.0159,0.0175,0.0105,-0.0019,-0.0101,0,0,0,0,0,-0.0242,-0.0267,-0.0335,-0.0405,-0.0489,-0.0524,-0.0594,-0.0608,-0.0609,-0.0554,-0.0531,-0.0452,-0.0332,-0.0284,-0.0198,-0.0221,0.0029,-0.0122,0.0155,0.0263,0.0279,0.0218,0,0,0,0,0,0,-0.027,-0.0326,-0.033,-0.0403,-0.0438,-0.052,-0.0557,-0.0558,-0.0511,-0.05,-0.0423,-0.0416,-0.0291,-0.0354,-0.0181,-0.0166,0.0023,-0.0075,-0.0073,0.0254,0.0269,0.0282,0.0224,0,0,0,0,0]}]]